Location: Noverd
(38.0910°N, 121.6877°W)
Time: 05:52:00
(UTC+00:00)

Cosmos 2221 Rocket - Pass Details

Date: 13 February 2026
Orbit: 616 x 641 km, 82.5° (Epoch: 5 March)

Event Time Altitude Azimuth Distance (km) Brightness Sun altitude
Rises 13:46:06 0° 349° (N) 2,954 6.9 -14.9°
Reaches altitude 10° 13:48:22 10° 346° (NNW) 2,039 6.0 -14.5°
Maximum altitude 13:52:51 64° 266° (W) 710 3.6 -13.6°
Drops below altitude 10° 13:57:16 10° 185° (S) 2,016 6.2 -12.7°
Sets 13:59:31 0° 182° (S) 2,917 7.1 -12.3°
